Content
SEND FEEDBACK

Daily
Averages
Monthly
Summary
United States of America

LAUGHLIN, NEVADA


Home > North America > United States > Nevada
Elevation: 1018 feet     Latitude: 35 10N     Longitude: 114 37W

WEATHER
 
SELECT A DAY
Number of Records: 181,770;   Date Range: 7/1/96 - 8/12/14
 
SHARE

PRINT THIS DATA

[ ← Previous Day ]
WEATHER ALMANAC - JANUARY 20, 2013
[ Next Day → ]
[ °C ]   °F
Weather ElementAverageHighLow
Temperature59.3 °F66.2 °F (3:15 pm)51.8 °F (7:35 am)
Dewpoint14.2 °F15.8 °F (2:35 am)12.2 °F (9:35 pm)
Humidity17.3 %24 % (7:55 am)13 % (3:35 pm)
Barometer30.18 in30.25 in (10:35 am)30.11 in (3:55 pm)
Wind Speed20.1 mph27.6 mph (11:55 am)
Wind Gust36.8 mph (12:15 pm)
Weather ElementAverage
Visibility10 mi
Wind DirectionESE (121.4 °)

Weather ElementTotal
Precipitation---
Heating Degree Days6 (Base 65)
Growing Degree Days9 (Base 50)
Averaged from 70 records on January 20, 2013
WEATHER CONDITIONS BREAKOUT
WIND DIRECTION BREAKOUT
WEATHER BY HOUR - JANUARY 20, 2013
[ °C ]   °F
Local TimeTemperatureDewpointHumidityBarometerVisibilityWind DirectionWind SpeedGust SpeedPrecipitationEventsConditions
12:35 AM57.2 °F14.0 °F18 %30.22 in10.0 miNNE (20°)13.8 mphClear
12:55 AM57.2 °F14.0 °F18 %30.22 in10.0 miNNE (30°)15.0 mphClear
1:15 AM57.2 °F14.0 °F18 %30.22 in10.0 miNNE (30°)12.7 mphClear
1:35 AM57.2 °F14.0 °F18 %30.22 in10.0 miNNE (20°)15.0 mph20.7 mphClear
1:55 AM57.2 °F14.0 °F18 %30.22 in10.0 miNNE (20°)11.5 mph17.3 mphClear
2:15 AM57.2 °F14.0 °F18 %30.23 in10.0 miNE (40°)10.4 mphClear
2:35 AM55.4 °F15.8 °F21 %30.23 in10.0 miNNE (30°)12.7 mph17.3 mphClear
2:55 AM55.4 °F14.0 °F20 %30.23 in10.0 miNE (40°)11.5 mph19.6 mphClear
3:15 AM55.4 °F14.0 °F20 %30.23 in10.0 miNE (40°)12.7 mphClear
3:35 AM55.4 °F14.0 °F20 %30.23 in10.0 miNE (40°)12.7 mphClear
3:55 AM55.4 °F14.0 °F20 %30.23 in10.0 miNNE (30°)13.8 mph19.6 mphClear
4:15 AM55.4 °F14.0 °F20 %30.23 in10.0 miNNE (30°)15.0 mph23.0 mphClear
4:35 AM55.4 °F14.0 °F20 %30.22 in10.0 miNNE (20°)16.1 mph21.9 mphClear
4:55 AM55.4 °F14.0 °F20 %30.22 in10.0 miNNE (20°)17.3 mphClear
5:15 AM53.6 °F15.8 °F22 %30.22 in10.0 miNNE (30°)15.0 mph21.9 mphClear
5:35 AM53.6 °F14.0 °F21 %30.22 in10.0 miNNE (30°)15.0 mph20.7 mphClear
5:55 AM53.6 °F14.0 °F21 %30.22 in10.0 miNNE (20°)18.4 mph24.2 mphClear
6:15 AM53.6 °F14.0 °F21 %30.22 in10.0 miNNE (30°)18.4 mph26.5 mphClear
6:35 AM53.6 °F15.8 °F22 %30.22 in10.0 miNNE (20°)19.6 mph25.3 mphClear
6:55 AM53.6 °F14.0 °F21 %30.21 in10.0 miNNE (20°)23.0 mphClear
7:35 AM51.8 °F14.0 °F22 %30.22 in10.0 miNNE (20°)23.0 mph29.9 mphClear
7:55 AM51.8 °F15.8 °F24 %30.22 in10.0 miNNE (20°)25.3 mph31.1 mphClear
8:15 AM51.8 °F14.0 °F22 %30.22 in10.0 miNNE (20°)24.2 mph29.9 mphClear
8:35 AM53.6 °F14.0 °F21 %30.22 in10.0 miNNE (20°)25.3 mph33.4 mphClear
8:55 AM53.6 °F15.8 °F22 %30.23 in10.0 miNNE (20°)23.0 mph29.9 mphClear
9:15 AM53.6 °F15.8 °F22 %30.24 in10.0 miNorth (10°)19.6 mphClear
9:35 AM53.6 °F15.8 °F22 %30.24 in10.0 miNorth (10°)20.7 mphClear
9:55 AM55.4 °F15.8 °F21 %30.24 in10.0 miNNE (20°)24.2 mph29.9 mphClear
10:15 AM55.4 °F15.8 °F21 %30.24 in10.0 miNorth (10°)24.2 mph29.9 mphClear
10:35 AM57.2 °F15.8 °F20 %30.25 in10.0 miNNE (20°)23.0 mph29.9 mphClear
10:55 AM57.2 °F15.8 °F20 %30.25 in10.0 miNorth (10°)24.2 mph28.8 mphClear
11:15 AM59.0 °F15.8 °F19 %30.25 in10.0 miNorth (360°)24.2 mph34.5 mphClear
11:35 AM59.0 °F14.0 °F17 %30.23 in10.0 miNorth (360°)23.0 mph33.4 mphClear
11:55 AM60.8 °F14.0 °F16 %30.22 in10.0 miNorth (350°)27.6 mph31.1 mphClear
12:15 PM62.6 °F14.0 °F15 %30.21 in10.0 miNorth (360°)26.5 mph36.8 mphClear
12:35 PM62.6 °F14.0 °F15 %30.19 in10.0 miNorth (360°)26.5 mph34.5 mphClear
12:55 PM62.6 °F14.0 °F15 %30.18 in10.0 miNorth (360°)23.0 mph35.7 mphClear
1:15 PM64.4 °F14.0 °F14 %30.16 in10.0 miNorth (350°)27.6 mph33.4 mphClear
1:35 PM64.4 °F14.0 °F14 %30.16 in10.0 miNorth (360°)23.0 mph35.7 mphClear
1:55 PM64.4 °F14.0 °F14 %30.14 in10.0 miNorth (360°)26.5 mph32.2 mphClear
2:15 PM64.4 °F14.0 °F14 %30.14 in10.0 miNorth (350°)23.0 mph36.8 mphClear
2:35 PM64.4 °F15.8 °F15 %30.13 in10.0 miNNW (340°)26.5 mph32.2 mphClear
2:55 PM64.4 °F15.8 °F15 %30.13 in10.0 miNorth (350°)25.3 mph32.2 mphClear
3:15 PM66.2 °F15.8 °F14 %30.12 in10.0 miNNW (340°)25.3 mph29.9 mphClear
3:35 PM66.2 °F14.0 °F13 %30.12 in10.0 miNNW (340°)23.0 mph28.8 mphClear
3:55 PM66.2 °F14.0 °F13 %30.11 in10.0 miNorth (350°)26.5 mph32.2 mphClear
4:15 PM66.2 °F14.0 °F13 %30.11 in10.0 miNorth (350°)23.0 mph31.1 mphClear
4:35 PM66.2 °F14.0 °F13 %30.11 in10.0 miNNW (340°)21.9 mph27.6 mphClear
4:55 PM66.2 °F14.0 °F13 %30.11 in10.0 miNorth (350°)17.3 mph24.2 mphClear
5:15 PM66.2 °F14.0 °F13 %30.11 in10.0 miNorth (350°)19.6 mph27.6 mphClear
5:35 PM64.4 °F14.0 °F14 %30.11 in10.0 miNorth (360°)16.1 mph23.0 mphClear
5:55 PM64.4 °F14.0 °F14 %30.11 in10.0 miNorth (360°)15.0 mphClear
6:15 PM64.4 °F14.0 °F14 %30.11 in10.0 miNorth (10°)18.4 mph23.0 mphClear
6:35 PM62.6 °F14.0 °F15 %30.12 in10.0 miNNE (20°)13.8 mphClear
6:55 PM62.6 °F14.0 °F15 %30.12 in10.0 miNNE (30°)16.1 mphClear
7:15 PM62.6 °F14.0 °F15 %30.12 in10.0 miNNE (30°)13.8 mphClear
7:35 PM62.6 °F14.0 °F15 %30.12 in10.0 miNE (40°)15.0 mph20.7 mphClear
7:55 PM62.6 °F14.0 °F15 %30.12 in10.0 miNNE (30°)17.3 mph20.7 mphClear
8:15 PM60.8 °F14.0 °F16 %30.12 in10.0 miNNE (30°)18.4 mphClear
8:35 PM60.8 °F14.0 °F16 %30.13 in10.0 miNNE (20°)18.4 mphClear
8:55 PM60.8 °F14.0 °F16 %30.13 in10.0 miNorth (10°)20.7 mph25.3 mphClear
9:15 PM60.8 °F14.0 °F16 %30.12 in10.0 miNorth (10°)21.9 mphClear
9:35 PM60.8 °F12.2 °F15 %30.12 in10.0 miNNE (20°)23.0 mphClear
9:55 PM60.8 °F12.2 °F15 %30.13 in10.0 miNNE (20°)20.7 mphClear
10:15 PM60.8 °F12.2 °F15 %30.13 in10.0 miNNE (20°)21.9 mphClear
10:35 PM59.0 °F12.2 °F16 %30.14 in10.0 miNorth (10°)23.0 mph29.9 mphClear
10:55 PM60.8 °F12.2 °F15 %30.14 in10.0 miNNE (20°)21.9 mphClear
11:15 PM60.8 °F12.2 °F15 %30.14 in10.0 miNorth (10°)23.0 mph29.9 mphClear
11:35 PM60.8 °F12.2 °F15 %30.15 in10.0 miNorth (10°)26.5 mph29.9 mphClear
11:55 PM59.0 °F14.0 °F17 %30.14 in10.0 miNNE (20°)23.0 mph29.9 mphClear
Hourly data recorded from KIFP, located miles away from Laughlin, Nevada







STORIES FROM OUR PARTNERS